Flag for Denmark Weather past 2 weeks in Aalborg, Denmark

Now
43 °F

Sprinkles. Passing clouds.


Feels Like: 39 °F
Forecast: 40 / 47 °F
Wind: 7 mph from Southwest

Location: Aalborg Airport

Current Time: Mar 29, 2015 at 10:51:17 PM

Latest Report: Mar 29, 2015 at 10:20 PM


Visibility: N/A

Pressure: 28.97 "Hg

Humidity: 93%

Dew point: 41 °F

Location of AalborgLocation

Historic Weather in Aalborg — Graph

°F

Aalborg temperature yesterday

Maximum temperature yesterday: 48 °F (at 1:20 PM)
Minimum temperature yesterday: 36 °F (at 4:20 AM)
Average temperature yesterday: 42 °F

Past Weeks' High & Low Weather Summary

 TemperatureHumidityPressure
High54 °F (Mar 19, 12:50 PM)100% (Mar 19, 9:50 PM)30.69 "Hg (Mar 19, 9:50 PM)
Low23 °F (Mar 22, 4:20 AM)33% (Mar 19, 1:50 PM)29.00 "Hg (Mar 29, 8:20 PM)
Average42 °F81%30.10 "Hg
* Reported Mar 14 8:20 PM — Mar 29 9:20 PM, Aalborg, Weather by CustomWeather, © 2015

Note: Actual official high and low records may vary slightly from our data, if they occured in-between our weather recording intervals... More about our weather records

Advertising

Aalborg weather history for previous 24 hours

 ConditionsComfort  
Time TempWeatherWind HumidityBarometerVisibility
9:20 PM
Sun, Mar 29
45 °FSprinkles. Passing clouds.7 mph93%29.00 "HgN/A
8:50 PM45 °FSprinkles. Broken clouds.2 mph93%29.00 "HgN/A
8:20 PM43 °FSprinkles. Broken clouds.1 mph93%29.00 "HgN/A
7:50 PM45 °FBroken clouds.1 mph87%29.03 "HgN/A
7:20 PM45 °FPartly sunny.1 mph87%29.03 "HgN/A
6:50 PM45 °FSprinkles. Partly sunny.1 mph87%29.03 "HgN/A
6:20 PM45 °FSprinkles. Broken clouds.2 mph87%29.03 "HgN/A
5:50 PM45 °FSprinkles. Partly sunny.2 mph87%29.06 "Hg5 mi
5:20 PM45 °FPartly sunny.3 mph87%29.06 "HgN/A
4:50 PM46 °FSprinkles. Partly sunny.10 mph87%29.09 "Hg6 mi
4:20 PM46 °FSprinkles. Partly sunny.5 mph87%29.12 "HgN/A
3:50 PM46 °FSprinkles. Broken clouds.7 mph87%29.12 "HgN/A
3:20 PM48 °FSprinkles. Broken clouds.12 mph76%29.12 "HgN/A
2:50 PM50 °FBroken clouds.10 mph71%29.15 "HgN/A
2:20 PM50 °FBroken clouds.12 mph71%29.18 "HgN/A
1:50 PM48 °FBroken clouds.9 mph76%29.18 "HgN/A
1:20 PM48 °FBroken clouds.10 mph76%29.18 "HgN/A
12:50 PM48 °FScattered clouds.13 mph82%29.21 "HgN/A
12:20 PM48 °FScattered clouds.12 mph82%29.21 "HgN/A
11:50 AM46 °FPartly sunny.13 mph82%29.24 "HgN/A
11:20 AM46 °FPartly sunny.15 mph82%29.24 "HgN/A
10:50 AM46 °FPartly sunny.13 mph87%29.24 "HgN/A
10:20 AM45 °FPartly sunny.14 mph93%29.24 "HgN/A
9:50 AM45 °FBroken clouds.10 mph93%29.24 "HgN/A
9:20 AM45 °FPartly sunny.13 mph93%29.24 "HgN/A
8:50 AM45 °FBroken clouds.13 mph93%29.27 "HgN/A
8:20 AM45 °FBroken clouds.10 mph93%29.27 "HgN/A
7:50 AM45 °FPartly cloudy.13 mph93%29.27 "HgN/A
7:20 AM45 °FRain. Passing clouds.13 mph93%29.27 "HgN/A
6:20 AM45 °FPartly cloudy.9 mph100%29.27 "Hg5 mi
5:50 AM45 °FPassing clouds.10 mph100%29.27 "Hg4 mi
5:20 AM46 °FPartly cloudy.10 mph93%29.30 "Hg6 mi
4:50 AM46 °FLight rain. Partly cloudy.12 mph93%29.30 "Hg6 mi
4:20 AM46 °FLight rain. Partly cloudy.12 mph93%29.30 "Hg6 mi
3:50 AM46 °FLight rain. Partly cloudy.12 mph93%29.33 "Hg6 mi
1:50 AM46 °FFog.13 mph93%29.33 "Hg3 mi
1:20 AM45 °FFog.15 mph100%29.36 "Hg3 mi
12:50 AM45 °FMostly cloudy.15 mph100%29.39 "HgN/A
12:20 AM45 °FPartly cloudy.16 mph93%29.39 "Hg2 mi
11:50 PM
Sat, Mar 28
45 °FPartly cloudy.20 mph93%29.42 "Hg5 mi
11:20 PM43 °FPartly cloudy.21 mph93%29.42 "Hg4 mi
10:50 PM43 °FPassing clouds.20 mph93%29.45 "Hg5 mi
10:20 PM43 °FLight rain. Passing clouds.22 mph87%29.47 "Hg5 mi
Weather by CustomWeather, © 2015

See weather overviewHow to use our weather pages